FW4376 Weather Reports


time (UTC)temp
F
wind
direction
speed
knots
gust
knots
rain 1hr
in
rain 24hr
in
rain mn
in
humidity
%
barometer
mb
20260831010056 0 0.0 0.0 0.00 0.00 0.00 1012.2
20260831004534 0 0.0 0.0 0.00 0.00 0.00 1012.1
20260831003033 0 0.0 0.0 0.00 0.00 0.00 1012.1
20260831001526 0 0.0 0.0 0.00 0.00 0.00 1012.1
20260831000023 0 0.0 0.0 0.00 0.00 0.00 1012.2
20260830234516 0 0.0 0.0 0.00 0.00 0.00 1012.2
20260830233012 0 0.0 0.0 0.00 0.00 0.00 1012.2
20260830231507 0 0.0 0.0 0.00 0.00 0.00 1012.3
20260830230004 0 0.0 0.0 0.00 0.00 0.00 1012.4
20260830224600 0 0.0 0.0 0.00 0.00 0.00 1012.4
20260830223056 0 0.0 0.0 0.00 0.00 0.00 1012.4
20260830221553 0 0.0 0.0 0.00 0.00 0.00 1012.5
20260830220049 0 0.0 0.0 0.00 0.00 0.00 1012.6
20260830214547 0 0.0 0.0 0.00 0.00 0.00 1012.6
20260830213053 0 0.0 0.0 0.00 0.00 0.00 1012.9
20260830211536 0 0.0 0.0 0.00 0.00 0.00 1012.9
20260830210032 0 0.0 0.0 0.00 0.00 0.00 1013.0
20260830204538 0 0.0 0.0 0.00 0.00 0.00 1013.2
20260830203023 0 0.0 0.0 0.00 0.00 0.00 1013.5
20260830201518 0 0.0 0.0 0.00 0.00 0.00 1013.5
20260830200015 0 0.0 0.0 0.00 0.00 0.00 1013.8
20260830194510 0 0.0 0.0 0.00 0.00 0.00 1014.1
20260830193010 0 0.0 0.0 0.00 0.00 0.00 1014.2
20260830191502 0 0.0 0.0 0.00 0.00 0.00 1014.4
20260830190057 0 0.0 0.0 0.00 0.00 0.00 1014.7
20260830184556 0 0.0 0.0 0.00 0.00 0.00 1014.8
20260830183048 0 0.0 0.0 0.00 0.00 0.00 1015.0
20260830181546 0 0.0 0.0 0.00 0.00 0.00 1015.1
20260830180041 0 0.0 0.0 0.00 0.00 0.00 1015.4
20260830174535 0 0.0 0.0 0.00 0.00 0.00 1015.5
20260830173030 0 158 2.6 7.0 0.00 0.00 0.00 1015.7
20260830171527 95 259 2.6 7.8 0.00 0.00 0.00 49 1016.0
20260830170024 95 254 3.5 8.7 0.00 0.00 0.00 53 1016.0
20260830164522 94 256 2.6 10.4 0.00 0.00 0.00 54 1016.1
20260830163025 93 230 1.7 7.0 0.00 0.00 0.00 55 1016.3
20260830161516 93 136 3.5 7.8 0.00 0.00 0.00 55 1016.4
20260830160014 92 281 2.6 7.8 0.00 0.00 0.00 58 1016.3
20260830154513 91 250 3.5 7.8 0.00 0.00 0.00 59 1016.3
20260830153011 91 236 2.6 7.0 0.00 0.00 0.00 59 1016.4
20260830151509 90 249 1.7 6.1 0.00 0.00 0.00 61 1016.4
20260830150015 89 138 1.7 7.0 0.00 0.00 0.00 64 1016.4
20260830144505 87 244 3.5 7.0 0.00 0.00 0.00 65 1016.5
20260830143101 87 243 2.6 7.8 0.00 0.00 0.00 66 1016.5
20260830141557 85 244 0.9 4.3 0.00 0.00 0.00 71 1016.5
20260830140054 84 243 0.0 2.6 0.00 0.00 0.00 73 1016.5
20260830134552 81 124 0.9 4.3 0.00 0.00 0.00 76 1016.5
20260830133051 80 245 0.9 3.5 0.00 0.00 0.00 77 1016.4
20260830131548 79 158 0.9 2.6 0.00 0.00 0.00 78 1016.2
20260830130047 78 101 0.9 3.5 0.00 0.00 0.00 78 1016.1
20260830124544 78 160 0.9 3.5 0.00 0.00 0.00 78 1015.9
20260830123043 78 173 0.9 3.5 0.00 0.00 0.00 78 1015.7
20260830121548 77 80 0.0 2.6 0.00 0.00 0.00 76 1015.5
20260830120038 78 104 0.0 2.6 0.00 0.00 0.00 75 1015.3
20260830114534 78 227 0.9 2.6 0.00 0.00 0.00 74 1015.0
20260830113032 78 230 0.9 2.6 0.00 0.00 0.00 72 1014.8
20260830111531 78 130 0.0 3.5 0.00 0.00 0.00 71 1014.8
20260830110030 79 84 0.0 2.6 0.00 0.00 0.00 69 1014.6
20260830104527 79 247 0.0 2.6 0.00 0.00 0.00 68 1014.5
20260830103026 79 248 0.0 2.6 0.00 0.00 0.00 66 1014.6
20260830101539 80 241 0.0 3.5 0.00 0.00 0.00 65 1014.4
20260830100023 80 243 0.0 1.7 0.00 0.00 0.00 64 1014.4
20260830094523 80 122 0.0 2.6 0.00 0.00 0.00 63 1014.4
20260830093023 80 127 0.0 3.5 0.00 0.00 0.00 62 1014.4
20260830091522 81 142 0.0 2.6 0.00 0.00 0.00 62 1014.3
20260830090047 80 150 0.9 4.3 0.00 0.00 0.00 61 1014.5
20260830084527 80 127 0.0 1.7 0.00 0.00 0.00 62 1014.4
20260830083037 80 117 0.0 1.7 0.00 0.00 0.00 62 1014.5
20260830081523 80 120 0.0 0.9 0.00 0.00 0.00 61 1014.2
20260830080016 81 116 0.0 0.9 0.00 0.00 0.00 60 1014.3
20260830074513 82 110 0.0 0.9 0.00 0.00 0.00 59 1014.5
20260830073011 82 121 0.0 1.7 0.00 0.00 0.00 58 1014.5
20260830071509 83 110 0.0 2.6 0.00 0.00 0.00 57 1014.6
20260830070008 83 129 0.0 1.7 0.00 0.00 0.00 56 1014.6
20260830064506 84 162 0.0 1.7 0.00 0.00 0.00 55 1014.6
20260830063006 84 115 0.0 2.6 0.00 0.00 0.00 55 1014.5
20260830061504 84 98 0.0 1.7 0.00 0.00 0.00 55 1014.5
20260830060003 84 118 0.0 2.6 0.00 0.00 0.00 55 1014.6
20260830054502 84 98 0.0 1.7 0.00 0.00 0.00 55 1014.7
20260830053000 84 123 0.0 3.5 0.00 0.00 0.00 55 1014.6
20260830051558 85 124 0.9 3.5 0.00 0.00 0.00 54 1014.6
20260830050055 86 131 0.0 4.3 0.00 0.00 0.00 54 1014.5
20260830044612 86 120 0.9 4.3 0.00 0.00 0.00 54 1014.5
20260830043056 86 330 0.9 3.5 0.00 0.00 0.00 54 1014.5
20260830041632 86 150 0.0 2.6 0.00 0.00 0.00 53 1014.3
20260830040059 87 144 0.0 0.9 0.00 0.00 0.00 52 1014.1
20260830034559 88 148 0.0 1.7 0.00 0.00 0.00 50 1014.1
20260830033052 89 140 0.0 1.7 0.00 0.00 0.00 50 1014.1
20260830031551 89 146 0.0 0.9 0.00 0.00 0.00 49 1013.9
20260830030122 90 119 0.0 1.7 0.00 0.00 0.00 48 1013.9
20260830024551 90 146 0.0 1.7 0.00 0.00 0.00 48 1013.9
20260830023050 90 132 0.0 0.9 0.00 0.00 0.00 48 1013.7
20260830021548 91 122 0.0 0.9 0.00 0.00 0.00 47 1013.5
20260830020051 92 134 0.0 0.9 0.00 0.00 0.00 46 1013.3
20260830014607 92 148 0.0 0.0 0.00 0.00 0.00 48 1013.1
20260830013100 93 163 0.0 0.9 0.00 0.00 0.00 44 1013.1
20260830011547 94 117 0.0 0.9 0.00 0.00 0.00 43 1013.0